Regional Weather Roundup
Issued by NWS Green Bay, WI

Home | Current Version | Previous Version | Graphics & Text | Print | Product List | Glossary Off
Versions: 1 2 3 4 5 6 7 8 9 10 11 12 13 14 15 16 17 18 19 20 21 22 23 24 25 26 27 28 29 30 31 32 33 34 35 36 37 38 39 40 41 42 43 44 45 46 47 48 49 50

000
ASUS43 KGRB 061659
RWRGRB

NORTH-CENTRAL AND NORTHEAST WISCONSIN REGIONAL WEATHER ROUNDUP
NATIONAL WEATHER SERVICE GREEN BAY WI
1200 PM CDT WED MAY 06 2015

WIZ005-009-010>012-018-019-061800-
NORTH CENTRAL WISCONSIN

CITY           SKY/WX    TMP DP  RH WIND       PRES   REMARKS
IRONWOOD       CLOUDY    57  52  82 SE10      30.11F
MANITOWISH WTR NOT AVBL
ARBOR VITAE    NOT AVBL
EAGLE RIVER    NOT AVBL
LAND O LAKES   NOT AVBL
RHINELANDER    CLOUDY    54  51  90 E10       30.18F
PHILLIPS       NOT AVBL
ANTIGO         NOT AVBL
TOMAHAWK       NOT AVBL
MERRILL        NOT AVBL
$$

WIZ013-073-061800-
NORTHEAST WISCONSIN

CITY           SKY/WX    TMP DP  RH WIND       PRES   REMARKS
IRON MOUNTAIN  LGT RAIN  62  44  51 S8        30.19F
MARINETTE      CLOUDY    55  39  54 SE6       30.22F
$$

WIZ017-030-035>037-045-061800-
CENTRAL WISCONSIN

CITY           SKY/WX    TMP DP  RH WIND       PRES   REMARKS
MEDFORD        NOT AVBL
WAUSAU         CLOUDY    60  53  77 E8        30.15F
MOSINEE        CLOUDY    63  57  82 SE9       30.16F
MARSHFIELD     PTSUNNY   66  53  63 SE9       30.14F
WISC RAPIDS    MOSUNNY   69  54  58 SE8       30.14F
STEVENS POINT  NOT AVBL
WAUPACA        NOT AVBL
SHAWANO        NOT AVBL
CLINTONVILLE   NOT AVBL
$$

WIZ038-039-048-051-061800-
FOX VALLEY

CITY           SKY/WX    TMP DP  RH WIND       PRES   REMARKS
NWS GREEN BAY  PTSUNNY   62  54  74 SE9       30.19F
APPLETON       NOT AVBL
OSHKOSH        PTSUNNY   60  53  77 E10       30.18S
FOND DU LAC    LGT RAIN  61  55  81 S10       30.18F
$$

WIZ022-050-052-061800-
EAST CENTRAL WISCONSIN

CITY           SKY/WX    TMP DP  RH WIND       PRES   REMARKS
STURGEON BAY   PTSUNNY   54  43  66 E3        30.25S
MANITOWOC        N/A     50  50 100 MISG        N/A
SHEBOYGAN      CLOUDY    54  51  90 SE8       30.21S
$$

LMZ563-521-522-541>543-061800-
LAKESHORE

STATION/POSITION TIME  TEMP    WIND        PRES    VSBY  WAVE
                       AIR SEA DIR/SP/G                  HT/PER
                 (UTC) (F)     (DEG/KT/KT) (MB)    (MI)  (FT/S)
SHEBOYGAN LKSHOR 1600   44     100/  3/  3 1024.1F
KEWAUNEE LKSHORE 1600   47      CALM  /  2 1022.6F
NORTHPORT PIER   1600   45     130/  4/  5 1024.0S
SISTER BAY LKSHO 1600   61     120/  9/ 13   N/A
CHAMBERS ISLAND  1600   51     330/  4/  5 1023.7S
MENOMINEE LKSHOR 1600   51      20/  4/  5 1024.2R
$$


USA.gov is the U.S. government's official web portal to all federal, state and local government web resources and services.